Sauk Centre, MN

5:23 AM CST on January 23, 2017 (GMT -0600)
Sauk Centre

Weather History for KD39 - October, 2011

Change the Weather History Date:

Wednesday, October 12, 2011

  Actual Average (KGHW) Record (KGHW)
Temperature  
Mean Temperature 58 °F -  
Max Temperature 62 °F 59 °F 83 °F (1956)
Min Temperature 53 °F 35 °F 21 °F (2006)
Degree Days  
Heating Degree Days 8    
Growing Degree Days 8 (Base 50)    
Moisture  
Dew Point 55 °F    
Average Humidity 88    
Maximum Humidity 100    
Minimum Humidity 68    
Precipitation  
Precipitation 0.10 in - - ()
Sea Level Pressure  
Sea Level Pressure 29.71 in    
Wind  
Wind Speed 6 mph (South)    
Max Wind Speed 12 mph    
Max Gust Speed -    
Visibility 9 miles    
Events Rain , Thunderstorm    
Averages and records for this station are not official NWS values.
T = Trace of Precipitation, MM = Missing Value Source: NWS Daily Summary

Daily Weather History Graph

Daily Weather History Graph

Search for Another Location

Airport or City:

Trip Planner

Search our weather history database for the weather conditions in past years. The results will help you decide how hot, cold, wet, or windy it might be!

Date:

Astronomy

Oct. 12, 2011 Rise Set
Actual Time 7:31 AM CDT 6:39 PM CDT
Civil Twilight 7:02 AM CDT 7:09 PM CDT
Nautical Twilight 6:27 AM CDT 7:43 PM CDT
Astronomical Twilight 5:53 AM CDT 8:18 PM CDT
Moon 6:36 PM CDT (10/12) 8:12 AM CDT (10/12)
Length of Visible Light 12h 07m
Length of Day
11h 07m
Full, 100% of the Moon is Illuminated
Oct 12
Full
Oct 19
Last Quarter
Oct 26
New
Nov 2
First Quarter
Nov 10
Full

Hourly Weather History & Observations

Time (CDT) Temp. Dew Point Humidity Pressure Visibility Wind Dir Wind Speed Gust Speed Precip Events Conditions
12:15 AM 62.6 °F 51.8 °F 68% 29.74 in 10.0 mi SE 9.2 mph - N/A   Mostly Cloudy
12:35 AM 60.8 °F 51.8 °F 72% 29.74 in 10.0 mi SE 8.1 mph - N/A   Mostly Cloudy
12:55 AM 60.8 °F 51.8 °F 72% 29.73 in 10.0 mi SE 8.1 mph - N/A   Overcast
1:15 AM 60.8 °F 51.8 °F 72% 29.73 in 10.0 mi SSE 8.1 mph - N/A Thunderstorm Mostly Cloudy
1:35 AM 60.8 °F 53.6 °F 77% 29.73 in 10.0 mi SSE 9.2 mph - N/A Rain , Thunderstorm Light Thunderstorms and Rain
1:55 AM 60.8 °F 53.6 °F 77% 29.73 in 10.0 mi South 3.5 mph - N/A Thunderstorm Overcast
2:35 AM 60.8 °F 53.6 °F 77% 29.74 in 7.0 mi Calm Calm - N/A Rain Light Rain
2:55 AM 60.8 °F 53.6 °F 77% 29.74 in 10.0 mi ESE 3.5 mph - N/A Rain Light Rain
3:15 AM 60.8 °F 53.6 °F 77% 29.73 in 10.0 mi ESE 4.6 mph - N/A Thunderstorm Overcast
3:35 AM 59.0 °F 53.6 °F 82% 29.72 in 10.0 mi East 3.5 mph - N/A   Overcast
3:55 AM 59.0 °F 55.4 °F 88% 29.72 in 10.0 mi East 4.6 mph - N/A   Overcast
4:15 AM 59.0 °F 55.4 °F 88% 29.72 in 10.0 mi ESE 3.5 mph - N/A   Overcast
4:35 AM 59.0 °F 55.4 °F 88% 29.72 in 5.0 mi SE 5.8 mph - 0.04 in Rain Heavy Rain
5:15 AM 59.0 °F 55.4 °F 88% 29.71 in 10.0 mi South 8.1 mph - N/A   Overcast
5:35 AM 57.2 °F 55.4 °F 94% 29.71 in 10.0 mi SE 6.9 mph - N/A Thunderstorm Overcast
5:55 AM 57.2 °F 55.4 °F 94% 29.71 in 10.0 mi SSE 6.9 mph - N/A   Overcast
6:15 AM 57.2 °F 55.4 °F 94% 29.72 in 10.0 mi South 5.8 mph - N/A   Overcast
6:35 AM 59.0 °F 55.4 °F 88% 29.73 in 10.0 mi South 9.2 mph - N/A Rain Rain
6:55 AM 57.2 °F 55.4 °F 94% 29.71 in 10.0 mi SSE 4.6 mph - 0.01 in   Overcast
7:15 AM 55.4 °F 53.6 °F 94% 29.71 in 10.0 mi SE 5.8 mph - N/A   Mostly Cloudy
7:35 AM 55.4 °F 53.6 °F 94% 29.71 in 10.0 mi SE 4.6 mph - N/A   Scattered Clouds
7:55 AM 55.4 °F 53.6 °F 94% 29.71 in 10.0 mi SSE 4.6 mph - N/A   Mostly Cloudy
8:15 AM 55.4 °F 53.6 °F 94% 29.72 in 10.0 mi SSE 4.6 mph - N/A   Overcast
8:35 AM 55.4 °F 53.6 °F 94% 29.72 in 10.0 mi South 4.6 mph - N/A   Overcast
8:55 AM 57.2 °F 55.4 °F 94% 29.73 in 10.0 mi South 3.5 mph - N/A   Scattered Clouds
9:55 AM 59.0 °F 55.4 °F 88% 29.73 in 10.0 mi SSW 5.8 mph - N/A   Overcast
10:15 AM 60.8 °F 55.4 °F 82% 29.73 in 10.0 mi SSW 6.9 mph - N/A   Mostly Cloudy
10:35 AM 60.8 °F 55.4 °F 82% 29.73 in 10.0 mi SW 5.8 mph - N/A   Overcast
10:55 AM 60.8 °F 55.4 °F 82% 29.73 in 10.0 mi SW 5.8 mph - N/A   Overcast
11:15 AM 60.8 °F 55.4 °F 82% 29.73 in 10.0 mi Calm Calm - N/A   Overcast
11:35 AM 60.8 °F 57.2 °F 88% 29.73 in 10.0 mi SW 4.6 mph - N/A Rain Light Rain
11:55 AM 60.8 °F 55.4 °F 82% 29.73 in 10.0 mi SW 4.6 mph - N/A   Light Drizzle
12:15 PM 62.6 °F 55.4 °F 77% 29.72 in 10.0 mi SSW 4.6 mph - N/A Rain , Thunderstorm Light Thunderstorms and Rain
12:35 PM 60.8 °F 55.4 °F 82% 29.72 in 10.0 mi WSW 4.6 mph - N/A   Light Drizzle
12:55 PM 60.8 °F 57.2 °F 88% 29.72 in 10.0 mi SW 5.8 mph - N/A Rain Rain
1:15 PM 60.8 °F 57.2 °F 88% 29.71 in 10.0 mi SW 6.9 mph - N/A Rain Rain
1:35 PM 60.8 °F 55.4 °F 82% 29.72 in 10.0 mi SSW 5.8 mph - N/A Rain Light Rain
1:55 PM 59.0 °F 57.2 °F 94% 29.72 in 10.0 mi South 10.4 mph - N/A Rain Rain
2:15 PM 59.0 °F 57.2 °F 94% 29.71 in 10.0 mi South 9.2 mph - 0.01 in Rain Light Rain
2:35 PM 59.0 °F 57.2 °F 94% 29.70 in 10.0 mi SSE 11.5 mph - 0.01 in Rain Light Rain
2:55 PM 59.0 °F 57.2 °F 94% 29.70 in 10.0 mi SSE 10.4 mph - 0.02 in Rain Light Rain
3:15 PM 59.0 °F 57.2 °F 94% 29.69 in 10.0 mi SSE 8.1 mph - N/A   Light Drizzle
3:35 PM 60.8 °F 59.0 °F 94% 29.70 in 10.0 mi SSW 6.9 mph - N/A   Scattered Clouds
3:55 PM 60.8 °F 57.2 °F 88% 29.70 in 10.0 mi SSW 6.9 mph - N/A   Mostly Cloudy
4:15 PM 60.8 °F 57.2 °F 88% 29.70 in 10.0 mi SSW 4.6 mph - N/A   Mostly Cloudy
4:35 PM 60.8 °F 55.4 °F 82% 29.70 in 10.0 mi SSW 5.8 mph - N/A   Scattered Clouds
4:55 PM 60.8 °F 57.2 °F 88% 29.70 in 10.0 mi SSW 4.6 mph - N/A   Clear
5:15 PM 60.8 °F 57.2 °F 88% 29.70 in 10.0 mi Calm Calm - N/A   Clear
5:35 PM 60.8 °F 57.2 °F 88% 29.70 in 10.0 mi Calm Calm - N/A   Scattered Clouds
5:55 PM 60.8 °F 57.2 °F 88% 29.70 in 10.0 mi WSW 4.6 mph - N/A   Mostly Cloudy
6:15 PM 60.8 °F 57.2 °F 88% 29.70 in 10.0 mi SW 5.8 mph - N/A Rain Light Rain
6:35 PM 59.0 °F 55.4 °F 88% 29.70 in 5.0 mi South 3.5 mph - 0.03 in Rain Light Rain
6:55 PM 59.0 °F 55.4 °F 88% 29.70 in 10.0 mi Calm Calm - 0.03 in   Mostly Cloudy
7:15 PM 57.2 °F 55.4 °F 94% 29.70 in 10.0 mi Calm Calm - N/A   Scattered Clouds
7:35 PM 57.2 °F 55.4 °F 94% 29.70 in 10.0 mi Calm Calm - N/A   Scattered Clouds
7:55 PM 55.4 °F 55.4 °F 100% 29.70 in 10.0 mi Calm Calm - N/A   Clear
8:35 PM 55.4 °F 55.4 °F 100% 29.70 in 5.0 mi Calm Calm - N/A   Clear
8:55 PM 55.4 °F 53.6 °F 94% 29.70 in 1.2 mi Calm Calm - N/A   Scattered Clouds
9:15 PM 53.6 °F 53.6 °F 100% 29.70 in 2.0 mi Calm Calm - N/A   Overcast
9:35 PM 53.6 °F 53.6 °F 100% 29.70 in 7.0 mi South 3.5 mph - N/A   Overcast
9:55 PM 55.4 °F 53.6 °F 94% 29.70 in 7.0 mi Calm Calm - N/A   Overcast
10:15 PM 55.4 °F 53.6 °F 94% 29.69 in 7.0 mi Calm Calm - N/A   Overcast
10:35 PM 55.4 °F 55.4 °F 100% 29.69 in 10.0 mi Calm Calm - N/A   Overcast
10:55 PM 55.4 °F 55.4 °F 100% 29.69 in 10.0 mi SSW 3.5 mph - N/A   Overcast
11:15 PM 55.4 °F 55.4 °F 100% 29.69 in 10.0 mi SW 3.5 mph - N/A   Overcast
11:55 PM 55.4 °F 53.6 °F 94% 29.68 in 10.0 mi WNW 3.5 mph - N/A   Scattered Clouds